Location: Belle Prairie Cemetery
(38.4585°N, 99.5490°W)
Time: 01:23:39
(UTC+00:00)

Daily predictions for brighter satellites

Satellite Brightness Start Highest point End
(mag) Time Altitude Azimuth Time Altitude Azimuth Time Altitude Azimuth
Cosmos 1607 4.4 02:13:43 10° NNW 02:19:57 52° NE 02:26:12 10° SE
Meteor 2-11 Rocket 4.5 02:14:51 10° N 02:21:00 78° E 02:27:04 10° S
STARLINK-1238 4.2 02:19:42 10° SSW 02:23:29 36° SE 02:27:17 10° ENE
STARLINK-1160 3.7 02:19:28 10° NW 02:23:36 77° SW 02:27:44 10° SE
Cosmos 405 Rocket 4.0 02:20:54 10° NNW 02:24:46 44° W 02:28:33 10° SSW
MOS 1 4.3 02:19:40 10° SSE 02:25:22 82° ENE 02:31:05 10° NNW
USA 229 DEB 3.6 02:21:18 10° SSW 02:27:40 68° ESE 02:34:22 10° NE
USA 229 3.6 02:21:26 10° SSW 02:27:48 68° ESE 02:34:29 10° NE
STARLINK-1201 4.0 02:24:35 10° SSW 02:28:27 40° SE 02:32:20 10° ENE
STARLINK-1170 3.8 02:24:28 10° NW 02:28:35 69° SW 02:32:41 10° SE
ATLAS CENTAUR R/B 4.0 02:26:00 10° WSW 02:29:42 24° NW 02:31:52 10° N
Cosmos 389 Rocket 3.4 02:27:03 10° SSE 02:30:02 28° E 02:33:02 10° NNE
STARLINK-1206 3.9 02:29:29 10° SSW 02:33:24 45° SE 02:37:21 10° ENE
STARLINK-1150 3.9 02:29:29 10° NW 02:33:34 62° SW 02:37:38 10° SE
Cosmos 1464 Rocket 4.1 02:28:52 10° N 02:35:13 70° E 02:41:34 10° SSE
NOSS 3-1 (C) 3.2 02:30:27 10° SSW 02:35:45 83° ESE 02:41:49 10° NE
NOSS 3-1 (A) 3.4 02:31:58 10° S 02:37:02 49° ESE 02:42:46 10° NE
Resurs 1-3 4.0 02:33:39 10° SSE 02:37:50 48° ENE 02:42:05 10° N
Cosmos 2251 Rocket 3.5 02:32:37 10° NNW 02:37:53 86° ENE 02:43:06 10° SSE
DMSP B5D2-2 4.1 02:32:38 10° NNE 02:37:56 70° ESE 02:43:10 10° S
STARLINK-1205 3.8 02:34:23 10° SSW 02:38:22 50° SE 02:42:22 10° ENE
STARLINK-1151 4.1 02:34:29 10° WNW 02:38:32 55° SW 02:42:30 10° SSE
Okean 1 4.0 02:35:56 10° SSE 02:39:36 35° E 02:43:19 10° NNE
Ariane Rocket 3.8 02:37:53 10° S 02:42:47 51° W 02:47:44 10° NNW
STARLINK-1218 3.7 02:39:17 10° SSW 02:43:18 55° SE 02:47:22 10° ENE
STARLINK-1133 4.2 02:39:29 10° WNW 02:43:29 50° SW 02:47:16 11° SSE
Cosmos 2242 Rocket 3.5 02:41:32 10° S 02:45:53 68° E 02:50:16 10° NNE
FREGAT/IRIS 4.2 02:43:47 10° SSW 02:46:10 29° W 02:48:33 10° NW
NOSS 2-3 (C) 3.8 02:44:13 10° S 02:48:12 46° ESE 02:52:38 10° NE
STARLINK-1254 3.6 02:44:13 10° SW 02:48:16 62° SE 02:52:22 10° NE
STARLINK-1139 4.4 02:44:30 10° WNW 02:48:28 45° SW 02:52:04 12° SSE
STARLINK-1166 4.5 02:46:49 10° NW 02:50:45 40° NE 02:54:08 13° ESE
MetOp-A 4.1 02:45:44 10° SSE 02:51:05 87° ENE 02:56:28 10° NNW
CZ-2C R/B 3.8 02:46:49 10° N 02:51:17 83° WNW 02:55:47 10° SSW
STARLINK-1231 3.5 02:49:10 10° SW 02:53:17 69° SE 02:57:24 10° NE
STARLINK-1212 4.4 02:51:36 10° WSW 02:54:33 40° NW 02:57:31 10° NE
STARLINK-1105 4.4 02:52:05 10° WSW 02:55:01 39° NW 02:57:58 10° NE
Cosmos 1666 3.8 02:51:34 10° NNW 02:55:16 46° W 02:58:56 10° SSW
STARLINK-1165 4.4 02:51:47 10° NW 02:55:46 44° NE 02:58:55 15° ESE
STARLINK-1247 4.4 02:53:00 10° WSW 02:55:56 39° NW 02:58:54 10° NE
SEDSat Delta rocket 4.4 02:49:45 10° WSW 02:56:13 47° S 03:01:27 14° ESE
STARLINK-1227 4.5 02:53:28 10° WSW 02:56:23 38° NW 02:59:19 10° NE
Cosmos 2056 Rocket 3.8 02:52:24 10° S 02:57:10 41° ESE 03:01:57 10° NNE
Cosmos 1536 3.9 02:53:19 10° NNW 02:57:13 46° W 03:01:07 10° SSW
STARLINK-1232 3.5 02:54:07 10° SW 02:58:14 77° SE 03:02:23 10° NE
ARGOS 4.4 02:55:01 10° SSW 03:00:00 40° W 03:05:03 10° NNW
STARLINK-1169 4.2 02:56:44 10° NW 03:00:45 48° NE 03:03:42 17° ESE
CZ-2C R/B 2.9 02:55:56 10° N 03:01:33 78° WNW 03:07:09 10° SSW
STARLINK-1208 3.5 02:59:04 10° SW 03:03:11 84° SE 03:07:21 10° NE
Cosmos 44 Rocket 3.3 02:58:49 10° NNW 03:03:43 76° ENE 03:07:23 18° SE
STARLINK-1178 4.1 03:01:41 10° NW 03:05:44 52° NE 03:08:29 19° ESE
Tsikada Rocket 4.0 03:00:28 10° S 03:06:38 71° E 03:12:47 10° NNE
DNEPR-1 R/B 4.4 03:01:57 10° NW 03:07:57 65° WSW 03:11:59 15° SSE
Cosmos 1515 4.0 03:05:26 17° SSE 03:08:05 44° E 03:11:44 10° NNE
STARLINK-1271 3.6 03:04:03 10° SW 03:08:11 88° NW 03:12:20 10° NE
SJ-6B 4.5 03:04:54 10° SSW 03:08:15 30° W 03:11:34 10° NW
USA 186 4.5 03:08:00 10° W 03:08:19 10° W 03:08:38 10° W
STARLINK-1120 3.9 03:06:39 10° NW 03:10:45 58° NE 03:13:16 22° ESE
STARLINK-1154 3.7 03:09:02 10° SW 03:13:10 80° NW 03:17:19 10° NE
Meteor 1-19 Rocket 4.2 03:08:35 10° S 03:14:02 64° E 03:19:41 10° NNE
Okean 3 4.5 03:13:52 23° SE 03:15:24 29° E 03:19:06 10° NNE
CREW DRAGON DEMO-1 DEB 4.5 03:12:50 10° NNW 03:15:33 27° NNE 03:17:09 18° ENE
STARLINK-1131 3.8 03:11:36 10° NW 03:15:43 63° NE 03:18:02 24° ESE
Terra 3.9 03:14:02 10° E 03:15:55 12° ENE 03:17:49 10° NE
Cosmos 2278 Rocket 2.6 03:10:56 10° S 03:16:10 40° ESE 03:21:27 10° NE
Lacrosse 5 4.3 03:13:35 10° N 03:16:20 14° NNE 03:19:04 10° NE
ASTEX 1 4.2 03:11:53 10° SSW 03:16:37 49° W 03:21:22 10° NNW
STARLINK-1197 3.8 03:14:01 10° SW 03:18:09 73° NW 03:22:17 10° NE
STARLINK-1157 3.1 03:15:17 10° NW 03:18:36 68° SW 03:19:58 32° SSE
STARLINK-1087 3.3 03:18:43 10° NNW 03:20:26 27° NE 03:20:26 27° NE
STARLINK-1190 3.7 03:16:32 10° NW 03:20:39 70° NE 03:22:47 27° ESE
USA 245 3.9 03:21:31 27° ESE 03:22:48 35° ENE 03:25:49 10° N
STARLINK-1198 4.0 03:19:00 10° WSW 03:23:06 66° NW 03:27:13 10° NE
Okean 1-7 3.1 03:19:37 10° S 03:23:54 76° W 03:28:11 10° N
Meteor 1-18 Rocket 4.2 03:18:30 10° S 03:24:02 86° W 03:29:41 10° N
Meteor 1-4 Rocket 2.4 03:23:36 29° SSE 03:25:08 58° E 03:28:33 10° NNE
STARLINK-1129 3.6 03:21:32 10° NW 03:25:41 77° NE 03:27:36 30° ESE
Cosmos 2221 Rocket 4.3 03:24:22 27° SE 03:26:02 36° E 03:30:11 10° NNE
Hubble Space Telescope 2.2 03:23:49 10° SW 03:26:52 20° S 03:26:52 20° S
STARLINK-1199 4.2 03:24:02 10° WSW 03:28:07 60° NW 03:32:13 10° NE
Cosmos 1452 Rocket 4.5 03:26:55 25° ESE 03:28:12 28° E 03:32:38 10° NE
STARLINK-1134 3.5 03:26:32 10° NW 03:30:41 85° NE 03:32:25 34° SE
Resurs 01 Rocket 2.0 03:29:31 17° S 03:32:50 60° WSW 03:37:16 10° NNW
STARLINK-1210 4.4 03:29:02 10° WSW 03:33:05 54° NW 03:37:10 10° NE
Cosmos 1420 Rocket 4.2 03:31:38 23° SSE 03:34:33 47° ESE 03:39:31 10° NNE
Cosmos 371 Rocket 4.1 03:34:23 28° ESE 03:35:06 30° E 03:39:19 10° NE
STARLINK-1135 3.5 03:31:28 10° NW 03:35:37 88° SW 03:37:10 38° SE
Cosmos 407 Rocket 3.5 03:30:27 10° NNW 03:35:49 82° ENE 03:38:42 28° SSE
STARLINK-1141 3.5 03:36:28 10° NW 03:40:37 79° SW 03:41:58 41° SE
ATLAS 3B CENTAUR R/B 4.0 03:33:46 10° SW 03:42:05 23° S 03:43:02 22° SSE
Sich 1 Rocket 3.6 03:37:37 10° N 03:42:12 68° E 03:44:00 36° SSE
ERBS 2.1 03:42:53 62° SE 03:42:57 62° SE 03:46:13 10° NE
STARLINK-1140 3.6 03:41:26 10° NW 03:45:34 72° SW 03:46:43 45° SSE
SPOT 1/Viking Rocket 3.7 03:45:02 33° SE 03:47:11 59° ENE 03:52:16 10° N
Meteor 1-13 Rocket 4.4 03:46:32 32° SSE 03:48:46 50° E 03:54:12 10° NNE
Cosmos 1782 Rocket 3.9 03:45:02 10° NNW 03:49:29 63° W 03:51:50 26° SSW
Cosmos 1544 3.2 03:46:46 10° NNW 03:50:23 71° W 03:51:24 44° SSW
STARLINK-1156 3.7 03:46:27 10° NW 03:50:32 64° SW 03:51:31 47° SSE
Cosmos 724 4.3 03:44:37 10° NNW 03:50:33 81° ENE 03:53:17 34° SE
Meteor 2-4 Rocket 3.5 03:47:05 22° S 03:50:42 83° E 03:56:04 10° N
SPOT 5 3.7 03:49:22 31° ESE 03:50:58 39° ENE 03:55:50 10° N
Cosmos 1743 4.4 03:48:18 10° NNW 03:51:37 29° W 03:54:10 14° SW
COSMOS 2406 3.3 03:46:06 10° NNW 03:51:52 69° ENE 03:54:17 36° SE
SAR-Lupe-2 3.8 03:48:36 10° N 03:52:11 66° WNW 03:53:52 29° SSW
Cosmos 2142 Rocket 4.5 03:46:20 10° N 03:52:26 64° E 03:55:11 33° SSE
STARLINK-1203 4.4 03:54:42 35° E 03:54:42 35° E 03:57:27 10° ENE
STARLINK-1148 3.8 03:51:26 10° NW 03:55:30 58° SW 03:56:17 48° S
SL-4 R/B 4.0 03:54:56 10° NNE 03:55:52 11° NE 03:55:53 11° NE
Cosmos 1190 Rocket 4.0 03:52:49 10° NNW 03:58:02 77° WSW 04:00:11 36° S
Okean 2 Rocket 3.1 03:54:29 10° N 03:58:53 61° E 03:59:44 50° SE
STARLINK-1158 3.9 03:56:27 10° WNW 04:00:29 52° SW 04:01:05 47° SSW
STARLINK-1239 4.4 04:06:44 36° ENE 04:06:44 36° ENE 04:09:21 10° NE
STARLINK-1162 4.1 04:01:26 10° WNW 04:05:25 46° SW 04:05:51 44° SSW
Landsat 7 3.9 04:06:44 39° S 04:08:25 70° WSW 04:13:11 10° NNW
Cosmos 1140 Rocket 3.6 04:03:45 10° NNW 04:08:55 67° WSW 04:10:47 39° S
Cosmos 1975 4.0 04:05:56 10° NNW 04:09:41 38° W 04:11:15 26° SW
STARLINK-1240 4.2 04:11:30 41° ENE 04:11:30 41° ENE 04:14:21 10° NE
ISS -0.9 04:09:31 10° NNW 04:11:07 13° NNE 04:12:43 10° NE
Cosmos 2151 Rocket 3.7 04:07:30 10° N 04:12:00 59° E 04:12:27 55° ESE
Cosmos 2297 4.5 04:12:54 33° E 04:12:54 33° E 04:17:37 10° NE
STARLINK-1076 4.4 04:08:44 10° NW 04:12:42 42° NE 04:13:29 38° ENE
Nadezhda 4 Rocket 4.4 04:11:46 38° ESE 04:13:05 44° E 04:18:50 10° NNE
BREEZE-M DEB 4.2 04:15:51 25° NE 04:15:51 25° NE 04:18:10 10° NE
STARLINK-1216 4.1 04:16:16 47° ENE 04:16:16 47° ENE 04:19:20 10° NE
STARLINK-1159 4.4 04:11:30 10° WNW 04:15:21 37° SW 04:15:26 37° SW
Okean 1 Rocket 4.3 04:11:55 10° NNE 04:15:37 28° ENE 04:15:37 28° ENE
Cosmos 909 Rocket 4.5 04:08:32 10° NW 04:15:57 62° WSW 04:18:45 35° S
Aureole 1 Rocket 4.0 04:13:09 10° NNW 04:17:23 49° WSW 04:19:15 34° SSW
STARLINK-1092 4.2 04:13:40 10° NW 04:17:41 46° NE 04:18:15 43° ENE
STARLINK-1237 3.9 04:21:01 55° ENE 04:21:01 55° ENE 04:24:20 10° NE
ERS-1 Rocket 2.9 04:20:27 55° SSE 04:21:36 89° WSW 04:26:40 10° NNW
STARLINK-1080 4.1 04:18:40 10° NW 04:22:43 51° NE 04:23:04 49° ENE
Cosmos 304 Rocket 4.5 04:23:56 38° ENE 04:23:56 38° ENE 04:27:40 10° NNE
Cosmos 2279 Rocket 3.9 04:18:27 10° N 04:24:43 85° W 04:26:58 43° S
Cosmos 1954 Rocket 4.0 04:19:49 10° NNW 04:25:05 76° WSW 04:26:17 53° S
STARLINK-1202 3.8 04:25:47 63° NE 04:25:47 63° NE 04:29:19 10° NE
STARLINK-1090 3.9 04:23:36 10° NW 04:27:41 56° NE 04:27:51 55° NE
Cosmos 332 Rocket 3.7 04:27:14 67° SSE 04:27:48 76° ESE 04:32:42 10° NNE
SeaSat 1 2.9 04:23:15 10° NE 04:27:22 43° E 04:27:22 43° E
Cosmos 2082 Rocket 2.5 04:24:57 10° NNW 04:30:34 54° ENE 04:31:41 46° ESE
STARLINK-1089 3.9 04:28:34 10° NW 04:32:37 61° NE 04:32:37 61° NE
Cosmos 1437 Rocket 3.0 04:33:49 63° N 04:33:49 63° N 04:37:05 10° N
CARTOSAT-1 3.6 04:33:48 64° SW 04:34:04 66° W 04:38:22 10° NNW
STARLINK-1246 3.7 04:35:20 72° N 04:35:20 72° N 04:39:15 10° NE
STARLINK-1107 3.8 04:33:31 10° NW 04:37:24 65° NNE 04:37:24 65° NNE
Cosmos 676 Rocket 4.4 04:32:52 10° NNW 04:38:00 55° WSW 04:39:02 47° SW
Cosmos 1833 Rocket 2.6 04:33:01 10° NNW 04:38:39 79° WSW 04:39:38 61° S
STARLINK-1224 3.8 04:40:05 68° NW 04:40:05 68° NW 04:44:13 10° NE
Cosmos 2369 Rocket 4.2 04:44:15 15° ENE 04:44:15 15° ENE 04:45:56 10° ENE
STARLINK-1066 3.9 04:38:31 10° NW 04:42:12 65° NNW 04:42:12 65° NNW
STARLINK-1225 4.0 04:44:52 61° WNW 04:45:04 62° NW 04:49:12 10° NE
Meteor 1-15 Rocket 4.2 04:39:15 10° N 04:45:11 73° E 04:46:06 62° SE
Cosmos 1066 Rocket 4.0 04:45:52 69° S 04:46:33 85° E 04:51:57 10° N
Cosmos 1331 Rocket 4.4 04:47:37 46° ENE 04:47:37 46° ENE 04:51:49 10° NNE
STARLINK-1081 4.0 04:43:29 10° NW 04:46:59 61° NNW 04:46:59 61° NNW
BREEZE-M DEB (TANK) 3.9 04:49:20 48° E 04:49:20 48° E 04:56:24 10° ENE
STARLINK-1230 4.2 04:49:38 53° WNW 04:50:04 56° NW 04:54:09 10° NE
Cosmos 1092 Rocket 4.0 04:50:48 54° ESE 04:51:18 55° E 04:57:16 10° NNE
Cosmos 1943 Rocket 3.5 04:53:31 26° ENE 04:53:31 26° ENE 04:56:44 10° NE
STARLINK-1070 4.2 04:48:26 10° NW 04:51:45 56° NW 04:51:45 56° NW
Terra 1.8 04:52:55 70° WSW 04:53:02 70° WSW 04:57:47 10° NNW
STARLINK-1243 4.4 04:54:23 46° WNW 04:55:03 51° NW 04:59:06 10° NE
STARLINK-1069 4.4 04:53:24 10° NW 04:56:31 49° WNW 04:56:31 49° WNW
Cosmos 2278 Rocket 4.1 04:55:33 10° WSW 05:00:20 28° WNW 05:05:10 10° N
Lacrosse 5 2.3 04:55:25 10° NW 05:00:22 52° NE 05:00:44 50° ENE
H-2A ROCKET BODY 4.4 04:56:45 30° SSW 05:01:49 46° SE 05:47:35 10° E
EXPRESS MD2 4.3 05:01:28 34° W 05:03:00 56° NNW 05:09:50 10° NE
Cosmos 1461 4.0 05:08:20 39° NNE 05:08:20 39° NNE 05:11:08 10° NNE
Thor Agena Rocket 3.6 05:05:31 10° NNE 05:10:28 69° ENE 05:10:28 69° ENE
Cosmos 2195 Rocket 4.4 05:12:59 69° SE 05:13:29 73° E 05:19:47 10° N
Cosmos 1428 Rocket 4.4 05:24:11 68° ESE 05:24:24 69° E 05:30:41 10° NNE
Cosmos 1975 Rocket 3.9 05:29:25 48° N 05:29:25 48° N 05:32:39 10° N
Cosmos 1553 Rocket 4.3 05:37:49 10° N 05:44:00 54° E 05:44:06 54° E
Cosmos 2026 Rocket 3.9 05:44:01 73° WSW 05:44:24 76° W 05:50:44 10° N
ISS -0.7 05:45:15 10° NW 05:45:56 15° NW 05:45:56 15° NW
Meteor 1-22 Rocket 4.5 05:47:15 10° NNW 05:52:58 64° W 05:52:58 64° W
USA 215 3.3 05:55:04 61° ESE 05:56:13 76° NE 06:02:45 10° NW
Aureole 3 Rocket 4.0 05:54:45 10° N 06:00:29 83° E 06:00:52 79° SE
SeaSat 1 4.4 06:01:22 10° N 06:05:13 23° NW 06:07:08 19° W
Cosmos 1455 Rocket 4.4 06:02:00 10° NNW 06:04:42 36° NNW 06:04:42 36° NNW
Cosmos 2266 Rocket 4.2 06:14:24 56° ENE 06:14:24 56° ENE 06:19:58 10° NNE
Cosmos 2082 Rocket 4.0 06:10:12 10° NW 06:13:32 19° W 06:13:32 19° W
NOSS 3-4 (A) 4.0 06:19:43 45° ENE 06:19:43 45° ENE 06:24:22 10° NE
NOSS 3-4 (C) 4.0 06:19:50 45° ENE 06:19:50 45° ENE 06:24:28 10° NE
Cosmos 968 Rocket 4.2 06:13:40 10° N 06:17:58 47° NE 06:17:58 47° NE
ALOS 2 4.0 06:26:19 35° NNW 06:26:19 35° NNW 06:28:58 10° NNW
Cosmos 2369 Rocket 2.5 06:26:00 59° NW 06:26:00 59° NW 06:31:24 10° NNE
Cosmos 1486 Rocket 4.4 06:23:46 10° NNW 06:28:04 59° N 06:28:04 59° N
Meteor 2-19 Rocket 4.4 06:30:51 76° ENE 06:30:51 76° ENE 06:36:41 10° N
CENTAUR R/B 3.7 06:23:50 10° NNW 06:31:49 54° NE 06:36:06 31° ESE
Cosmos 1943 Rocket 3.3 06:34:59 34° WNW 06:35:34 35° WNW 06:40:39 10° N
Cosmos 2098 Rocket 4.4 06:36:17 57° E 06:36:26 57° E 06:43:28 10° NNE
Lacrosse 5 4.2 06:39:00 10° WNW 06:39:54 14° WNW 06:39:54 14° WNW
Cosmos 1953 4.3 06:40:15 10° N 06:42:10 27° N 06:42:10 27° N
ATLAS 2AS CENTAUR R/B 2.9 06:45:27 69° SSW 06:46:38 89° WNW 06:54:42 10° NNE
Cosmos 2315 Rocket 4.0 06:45:21 10° N 06:51:31 66° E 06:51:33 66° E
NOSS 3-2 (A) 4.0 06:51:00 10° NW 06:58:47 71° WSW 06:59:36 67° SSW
Meteor 2-15 4.4 06:54:29 10° N 07:00:25 82° NW 07:00:25 82° NW
COSMOS 2455 2.9 07:04:08 74° ENE 07:04:08 74° ENE 07:09:40 10° NNE
USA 238 DEB 3.9 06:58:55 10° NW 07:05:58 62° WSW 07:05:58 62° WSW
USA 238 3.9 06:59:01 10° NW 07:06:05 63° WSW 07:06:05 63° WSW
SL-4 R/B 3.4 07:11:24 44° NE 07:11:24 44° NE 07:14:43 10° NE
Meteor 2-15 Rocket 4.4 07:11:09 10° N 07:17:09 79° WNW 07:17:09 79° WNW
Cosmos 1833 4.4 07:12:50 10° NNW 07:17:32 60° NW 07:17:32 60° NW
Cosmos 1656 Rocket 4.4 07:19:15 43° WNW 07:19:21 43° WNW 07:24:41 10° N
ATLAS CENTAUR R/B 2.8 07:21:34 38° NNE 07:21:34 38° NNE 07:24:13 10° NNE
Exosat Rocket 4.3 07:11:07 10° NNW 07:20:36 85° WSW 07:21:38 69° S
FALCON 9 R/B 2.9 07:32:38 65° SSW 07:33:08 67° S 07:50:29 10° E
RESURS DK-1 3.6 07:42:47 39° NNE 07:42:47 39° NNE 07:45:29 10° NNE
Meteor 2-21 4.4 07:42:04 71° W 07:42:15 71° W 07:48:26 10° N
Cosmos 1777 Rocket 4.1 07:37:32 10° NNW 07:42:43 67° ENE 07:42:43 67° ENE
BREEZE-M R/B 3.7 07:51:53 55° NE 07:51:53 55° NE 07:54:31 10° NE
SL-19 R/B 4.2 07:46:56 10° N 07:52:22 74° WNW 07:52:29 73° W
CZ-4C R/B 4.5 07:53:36 42° ENE 07:53:36 42° ENE 07:57:26 10° N
Helios 1B rocket 4.4 07:52:10 10° NNW 07:54:28 21° NW 07:54:28 21° NW
SL-16 R/B 3.0 07:56:22 34° SE 07:58:47 55° ENE 08:04:46 10° N
Cosmos 1867 3.8 07:54:37 10° NW 07:59:09 57° WNW 07:59:09 57° WNW
Timation 2 Rocket 4.0 07:56:02 10° NNW 08:02:21 74° ENE 08:04:08 48° SE
NOSS 3-2 (C) 4.4 07:56:23 10° NW 08:03:46 44° WSW 08:04:01 44° WSW
DELTA 2 DEB (DPAF) 4.4 08:04:49 63° N 08:04:49 63° N 08:08:36 10° NNW
Meteor 1-24 Rocket 4.1 08:10:46 44° WNW 08:10:46 44° WNW 08:15:48 10° N
Cosmos 1697 Rocket 4.2 08:10:09 22° SE 08:11:37 25° ESE 08:16:08 10° NE
Cosmos 1745 Rocket 3.8 08:11:24 66° SSW 08:12:18 82° W 08:18:28 10° N
Cosmos 2227 Rocket 3.9 08:08:01 10° N 08:12:57 30° ENE 08:17:52 10° ESE
CZ-2D R/B 2.0 08:09:49 10° NNE 08:15:05 75° ESE 08:15:32 69° SE
ADEOS II 3.6 08:11:41 10° NE 08:16:09 28° E 08:17:53 23° SE
Cosmos 2084 3.8 08:18:25 63° NNW 08:18:25 63° NNW 08:22:30 10° NNE
ATLAS 3B R/B 2.6 08:12:00 10° NW 08:18:51 76° WSW 08:21:15 44° SSE
USA 81 4.2 08:19:00 55° SE 08:19:52 65° E 08:25:05 10° N
Cosmos 2058 Rocket 4.4 08:17:20 10° NNW 08:20:04 29° NW 08:20:04 29° NW
Cosmos 1300 4.4 08:17:48 10° NNW 08:19:45 26° NW 08:19:45 26° NW
CENTAUR R/B 3.6 08:14:52 10° NW 08:22:32 40° WSW 08:23:13 40° WSW
Resurs 1-4 Rocket 1.9 08:18:35 10° NNE 08:23:54 88° WNW 08:24:31 71° SSW
SJ 16-02 3.1 08:20:20 10° N 08:24:16 30° ENE 08:26:56 17° ESE
Cosmos 1626 4.3 08:27:14 17° NW 08:27:14 17° NW 08:28:45 10° NNW
Cosmos 921 Rocket 4.1 08:27:30 34° NW 08:27:30 34° NW 08:30:54 10° N
STARLINK-1338 4.4 08:31:19 40° NE 08:31:19 40° NE 08:33:40 10° NE
GEOS 3 Rocket 4.3 08:32:59 37° W 08:32:59 37° W 08:36:45 10° NW
NPP 3.5 08:27:35 10° NNE 08:33:00 86° WNW 08:33:57 62° SSW
Cosmos 468 Rocket 4.1 08:32:55 54° SSE 08:33:46 63° ESE 08:38:50 10° NNE
STARLINK-1371 4.2 08:35:16 45° NE 08:35:16 45° NE 08:37:49 10° NE
Cosmos 1626 Rocket 4.2 08:35:09 42° WNW 08:35:09 42° WNW 08:38:47 10° N
Cosmos 1656 3.7 08:34:04 57° S 08:35:15 77° ESE 08:40:54 10° NNE
STARLINK-1341 4.1 08:37:17 47° NNE 08:37:17 47° NNE 08:39:54 10° NE
Meteor 1-21 Rocket 4.1 08:36:33 56° S 08:37:48 88° E 08:43:28 10° N
STARLINK-1374 4.0 08:39:18 49° NNE 08:39:18 49° NNE 08:42:01 10° NE
OAO 1 4.5 08:38:53 60° S 08:38:55 60° S 08:44:20 10° ESE
STARLINK-1339 4.0 08:41:20 51° NNE 08:41:20 51° NNE 08:44:07 10° NE
STARLINK-1377 3.9 08:43:24 52° NNE 08:43:24 52° NNE 08:46:17 10° NE
STARLINK-1353 3.9 08:44:23 50° NNE 08:44:23 50° NNE 08:47:08 10° NE
Cosmos 2369 4.3 08:43:42 33° SSE 08:45:39 47° ESE 08:51:03 10° NE
STARLINK-1375 3.9 08:46:16 51° N 08:46:16 51° N 08:49:10 10° NE
STARLINK-1350 3.8 08:48:32 50° N 08:48:32 50° N 08:51:28 10° NE
Meteor 2-10 Rocket 3.5 08:43:10 10° N 08:48:29 79° E 08:50:25 39° SSE
SL-4 R/B 4.4 08:46:57 12° WNW 08:50:16 23° NNW 08:54:02 10° NNE
STARLINK-1352 3.8 08:51:47 51° NNW 08:51:47 51° NNW 08:54:58 10° NE
CZ-4C R/B 2.2 08:51:25 46° SSE 08:52:34 58° ESE 08:58:01 10° NE
STARLINK-1368 3.8 08:53:54 50° NNW 08:53:54 50° NNW 08:57:11 10° NE
STARLINK-1369 3.8 08:54:56 48° NNW 08:54:56 48° NNW 08:58:06 10° NE
UNK 4.1 08:55:42 45° W 08:55:42 45° W 09:00:00 10° NNW
Alouette 2 Rocket 3.9 08:50:25 10° N 08:56:18 78° ENE 08:57:53 40° SSE
STARLINK-1372 3.9 08:58:13 46° NW 08:58:15 46° NW 09:01:39 10° NE
ATLAS CENTAUR R/B 4.1 08:59:01 10° NW 08:59:27 10° NW 08:59:53 10° NW
Cosmos 1812 Rocket 3.8 08:55:43 10° NNW 09:00:02 49° W 09:00:07 49° W
STARLINK-1378 3.9 09:00:23 43° NW 09:00:32 44° NW 09:03:56 10° NE
STARLINK-1365 4.0 09:00:59 41° NW 09:01:07 41° NW 09:04:27 10° NE
STARLINK-1329 3.9 09:01:03 43° NW 09:01:13 43° NW 09:04:37 10° NE
Cosmos 1709 Rocket 4.0 09:00:26 41° SW 09:02:26 60° W 09:08:29 10° N
STARLINK-1379 4.0 09:02:34 41° NW 09:02:48 42° NW 09:06:11 10° NE
STARLINK-1362 4.0 09:03:17 40° NW 09:03:33 41° NW 09:06:56 10° NE
Cosmos 1455 1.9 09:00:00 10° N 09:03:44 77° W 09:03:49 76° WSW
Cosmos 1980 Rocket 3.3 09:00:48 20° SSE 09:03:54 36° ESE 09:09:00 10° NE
STARLINK-1373 4.1 09:05:32 38° NW 09:05:55 39° NW 09:09:16 10° NE
Cosmos 2219 3.1 09:00:49 10° NNW 09:06:27 70° WSW 09:09:29 28° S
AQUA 4.2 09:02:11 10° N 09:06:45 47° WNW 09:07:44 41° WSW
NOSS 7 (H) 4.4 09:07:07 65° NW 09:07:07 65° NW 09:09:59 10° NNE
STARLINK-1390 4.1 09:06:47 37° NW 09:07:10 38° NW 09:10:28 10° NE
Cosmos 1825 Rocket 3.4 09:06:52 56° SW 09:07:37 71° W 09:11:56 10° N
CZ-4B R/B 4.2 09:08:36 10° N 09:13:25 41° WNW 09:14:58 33° WSW
Cosmos 540 Rocket 3.8 09:11:43 29° S 09:14:11 60° ESE 09:19:15 10° NNE
IRS-1C 4.1 09:10:31 10° NNE 09:15:53 85° ESE 09:18:32 31° S
Cosmos 1400 Rocket 4.0 09:15:19 10° N 09:19:15 42° ENE 09:23:09 10° SSE
Cosmos 990 Rocket 3.9 09:14:58 10° NNW 09:20:16 81° WSW 09:24:26 16° SSE
Cosmos 2297 Rocket 2.1 09:15:55 10° NNW 09:21:31 65° WSW 09:25:53 17° S
STARLINK-1212 2.8 09:18:26 10° NW 09:21:32 83° NE 09:24:38 10° SE
STARLINK-1105 2.8 09:18:54 10° NW 09:21:59 84° NE 09:25:04 10° SE
CBERS-1 4.3 09:17:06 10° N 09:22:03 51° WNW 09:23:58 33° SW
GP-B 3.5 09:18:08 10° N 09:22:22 45° W 09:23:22 38° WSW
STARLINK-1247 2.8 09:19:48 10° NW 09:22:56 86° NE 09:26:02 10° SE
Cosmos-2242 2.9 09:18:53 10° NNW 09:23:07 66° W 09:24:34 38° SSW
STARLINK-1227 2.7 09:20:16 10° NW 09:23:22 87° NE 09:26:26 10° SE
Cosmos 1703 3.7 09:23:36 41° WSW 09:24:10 44° W 09:27:58 10° N
STARLINK-1226 2.7 09:21:07 10° NW 09:24:14 89° NE 09:27:20 10° SE
STARLINK-1215 2.7 09:22:04 10° NW 09:25:11 89° SW 09:28:18 10° SE
Cosmos 2082 4.0 09:19:52 10° NNW 09:25:31 66° ENE 09:31:05 10° SSE
STARLINK-1217 2.7 09:23:50 10° NW 09:26:57 85° SW 09:30:03 10° SE
Cosmos 2278 3.8 09:23:50 27° S 09:27:01 73° ESE 09:32:40 10° NNE
Cosmos 841 Rocket 3.5 09:24:51 30° SSW 09:27:31 88° ESE 09:32:47 10° NNE
STARLINK-1229 2.7 09:24:45 10° NW 09:27:53 83° SW 09:30:59 10° SE
BREEZE M DEB (TANK) 3.7 09:25:45 10° NW 09:28:29 59° NE 09:36:09 10° ESE
STARLINK-1270 2.7 09:25:37 10° NW 09:28:45 81° SW 09:31:51 10° SE
COBE Rocket 4.3 09:25:32 10° SSE 09:30:21 64° ENE 09:35:20 10° N
STARLINK-1189 2.7 09:27:27 10° NW 09:30:35 78° SW 09:33:40 10° SE
Meteor 1-11 4.2 09:27:24 25° S 09:30:50 86° W 09:36:29 10° N
STARLINK-1188 2.7 09:28:21 10° NW 09:31:28 76° SW 09:34:34 10° SE
STARLINK-1187 2.8 09:29:28 10° NW 09:32:42 60° SSW 09:35:35 10° SE
SL-08 R/B 3.2 09:30:05 16° S 09:33:52 83° WSW 09:38:33 10° NNW
STARLINK-1191 2.6 09:30:49 10° NW 09:33:54 70° SW 09:36:59 10° SE
STARLINK-1221 2.7 09:31:41 10° NW 09:34:46 69° SW 09:37:50 10° SE
IRS-1D 4.3 09:30:24 10° N 09:35:20 40° WNW 09:37:40 26° WSW
STARLINK-1222 2.7 09:32:36 10° NW 09:35:40 67° SW 09:38:45 10° SE
STARLINK-1214 2.7 09:33:29 10° NW 09:36:35 65° SW 09:39:37 10° SE
STARLINK 1040 3.8 09:37:55 28° SE 09:38:03 28° SE 09:40:20 10° ENE
STARLINK-1232 4.4 09:36:29 10° NW 09:40:33 53° NE 09:44:36 10° ESE
CZ-2C R/B 3.7 09:37:11 10° NNE 09:40:44 42° E 09:43:44 14° SSE
SL-16 R/B 3.7 09:41:27 20° WSW 09:42:41 22° W 09:47:18 10° NW
Cosmos 2074 Rocket 4.0 09:39:16 20° SSW 09:43:51 74° W 09:50:11 10° N
STARLINK-1208 4.2 09:41:25 10° NW 09:45:30 58° NE 09:49:36 10° ESE
Cosmos 1763 Rocket 4.4 09:43:52 22° WSW 09:46:11 32° WNW 09:50:46 10° N
H-2A R/B 2.4 09:43:05 10° SSE 09:47:19 69° ENE 09:51:42 10° N
STARLINK-1271 4.1 09:46:23 10° NW 09:50:31 64° NE 09:54:36 10° ESE
CZ-2D R/B 4.1 09:51:59 10° NNW 09:54:27 14° WNW 09:56:52 10° W
Cosmos 2058 4.2 09:50:48 10° SSE 09:54:41 40° E 09:58:38 10° NNE
USA 234 3.4 09:48:43 10° NE 09:55:14 67° SE 10:00:31 16° SSW
Cosmos 1697 Rocket 3.3 09:51:53 21° WSW 09:55:16 42° WNW 10:00:39 10° N
STARLINK-1154 3.9 09:51:22 10° NW 09:55:30 71° NE 09:59:37 10° SE
Cosmos 2184 Rocket 4.1 09:51:04 18° SSW 09:55:45 61° W 10:01:52 10° N
ADEOS II 3.0 09:51:09 10° N 09:55:50 34° WNW 09:58:49 19° WSW
Lacrosse 4 Rocket 2.0 09:51:44 10° NNW 09:56:01 61° ENE 10:00:08 10° SE
Cosmos 2227 Rocket 2.7 09:51:51 10° NW 09:57:02 37° WSW 10:02:09 10° S
STARLINK-1197 3.7 09:56:19 10° NW 10:00:29 78° NE 10:04:36 10° SE
SL-16 R/B 3.8 09:56:47 10° SSE 10:01:43 32° ESE 10:06:40 10° NE
SJ 16-02 2.7 09:59:16 10° NW 10:02:38 22° W 10:03:51 19° WSW
Resurs 1-4 Rocket 4.2 10:01:28 10° NW 10:02:53 11° WNW 10:04:18 10° WNW
USA 129 2.5 10:01:51 10° NNE 10:02:54 29° NNE 10:02:54 29° NNE
SL-24 DEB 4.5 09:59:29 10° N 10:04:07 71° E 10:08:42 10° S
ARIANE 5 R/B 3.0 10:00:18 10° N 10:05:04 43° WNW 10:08:36 17° SW
STARLINK-1198 3.6 10:01:16 10° NW 10:05:26 86° NE 10:09:33 10° SE
CZ-4B R/B 4.1 10:03:27 10° ESE 10:05:42 19° ENE 10:07:58 10° NNE
Iridium 2 3.7 10:04:17 10° NNW 10:07:59 58° W 10:11:30 11° S
ATLAS 3B R/B 4.4 10:06:21 10° W 10:08:24 12° WSW 10:08:24 12° WSW
STARLINK-1199 3.5 10:06:16 10° NW 10:10:26 86° SW 10:14:34 10° SE
Spot 4 Rocket 4.3 10:06:37 10° N 10:11:38 53° WNW 10:16:00 13° SW
STARLINK-43 3.3 10:09:35 19° SW 10:12:04 83° NW 10:15:46 10° NE
MSX 4.1 10:06:26 10° NNE 10:12:12 73° ESE 10:17:56 10° S
Cosmos 1610 Rocket 4.5 10:08:07 10° SSW 10:14:11 66° W 10:20:18 10° N
Cosmos 1842 Rocket 3.5 10:09:55 10° NNW 10:14:24 73° W 10:18:50 10° S
ERS-2 2.8 10:12:05 14° SSW 10:14:51 34° W 10:18:13 10° NNW
STARLINK-1210 3.5 10:11:15 10° NW 10:15:24 78° SW 10:19:31 10° SE
Cosmos 2298 Rocket 4.1 10:12:08 10° NNW 10:17:28 82° ENE 10:22:46 10° SSE
Cosmos 1825 4.5 10:15:08 10° SE 10:18:12 24° E 10:21:16 10° NE
STARLINK-55 3.8 10:17:33 14° SSW 10:20:01 41° SE 10:23:04 10° ENE
STARLINK-1219 3.5 10:16:14 10° NW 10:20:22 71° SW 10:24:29 10° SE
IDEFIX/ARIANE 42P 2.7 10:15:43 10° N 10:20:56 64° WNW 10:26:07 10° SSW
Meteor 1-27 4.4 10:16:25 10° NNW 10:21:48 52° W 10:27:09 10° SSW
Cosmos 1937 Rocket 4.4 10:19:14 10° NW 10:23:44 29° W 10:28:14 10° SSW
STARLINK-1211 3.6 10:21:13 10° NW 10:25:19 63° SW 10:29:24 10° SE
Cosmos 2154 Rocket 4.2 10:21:40 10° SSW 10:27:48 54° W 10:33:56 10° N
STARLINK-1313 4.4 10:25:14 10° SSW 10:27:59 29° SE 10:30:45 10° ENE
STARLINK-1311 4.3 10:26:12 10° SSW 10:28:49 28° SE 10:31:27 10° ENE
STARLINK-1279 4.3 10:26:07 10° SSW 10:28:52 30° SE 10:31:39 10° ENE
STARLINK-28 3.2 10:27:13 12° SW 10:30:01 60° SE 10:33:11 10° NE
STARLINK-1245 3.6 10:26:14 10° NW 10:30:18 57° SW 10:34:21 10° SSE
SL-8 Rocket 4.5 10:25:24 10° S 10:31:38 66° E 10:37:52 10° NNE
STARLINK-1272 4.5 10:29:16 10° SSW 10:32:06 29° SE 10:34:57 10° ENE
STARLINK-1255 4.5 10:29:31 10° SSW 10:32:14 28° SE 10:34:58 10° ENE
STARLINK-1207 4.4 10:30:41 10° SSW 10:33:33 30° SE 10:36:27 10° ENE
STARLINK-1266 4.4 10:32:09 10° SSW 10:35:03 31° SE 10:37:58 10° ENE
STARLINK-1233 3.8 10:31:13 10° WNW 10:35:15 51° SW 10:39:15 10° SSE
ADEOS 4.3 10:31:09 10° NNE 10:36:16 56° E 10:41:23 10° S
STARLINK-1284 4.3 10:33:37 10° SSW 10:36:34 33° SE 10:39:32 10° ENE
STARLINK-1258 4.2 10:35:03 10° SSW 10:38:00 34° SE 10:40:59 10° ENE
Cosmos 1076 Rocket 3.6 10:35:11 10° SSW 10:39:28 60° W 10:43:48 10° N
STARLINK-1292 4.2 10:36:33 10° SSW 10:39:32 35° SE 10:42:33 10° ENE
CZ-2C R/B 3.0 10:34:25 10° NNE 10:39:33 67° E 10:44:42 10° S
STARLINK-1204 3.9 10:36:15 10° WNW 10:40:13 46° SW 10:44:11 10° SSE
Cosmos 2360 Rocket 4.1 10:35:45 10° SSE 10:40:25 28° ESE 10:45:07 10° NE
STARLINK-41 3.4 10:37:39 10° SW 10:40:43 55° SE 10:43:48 10° ENE
STARLINK-1274 4.1 10:38:05 10° SSW 10:41:06 37° SE 10:44:09 10° ENE
ATLAS CENTAUR R/B 3.9 10:36:59 10° WNW 10:41:19 33° SW 10:50:58 10° SSE
Landsat 5 4.2 10:37:14 10° SSW 10:41:24 39° W 10:45:38 10° NNW
CZ-4C R/B 3.8 10:37:37 10° W 10:41:35 22° NW 10:46:06 10° NNE
Meteor 2-2 Rocket 4.5 10:35:52 10° NNW 10:41:48 61° W 10:47:42 10° S
STARLINK-1289 4.1 10:39:37 10° SSW 10:42:40 38° SE 10:45:43 10° ENE
Cosmos 1125 Rocket 3.7 10:38:44 10° NNW 10:43:57 79° ENE 10:49:08 10° SSE
STARLINK-1303 4.0 10:41:04 10° SSW 10:44:10 40° SE 10:47:18 10° ENE
STARLINK-1238 4.0 10:41:16 10° WNW 10:45:10 41° SW 10:49:03 10° SSE
STARLINK-1312 3.9 10:42:38 10° SSW 10:45:43 41° SE 10:48:50 10° ENE
CZ-4C R/B 4.3 10:43:15 10° SSW 10:46:08 23° W 10:49:04 10° NW
Cosmos 1892 3.1 10:42:54 10° SSW 10:46:36 46° W 10:50:18 10° N
STARLINK-33 3.0 10:43:53 10° SW 10:47:05 81° SE 10:50:17 10° NE
Cosmos 1980 Rocket 3.3 10:43:03 10° WSW 10:47:54 30° WNW 10:52:49 10° N
STARLINK-1201 4.1 10:46:18 10° WNW 10:50:07 37° SW 10:53:56 10° SSE
Uosat 12 SS-18 rocket 4.2 10:46:39 10° NW 10:50:53 53° WSW 10:55:31 10° SSE
Centaur D-1A AC-31 4.1 10:23:45 10° W 11:13:53 47° SSW 11:20:25 10° SE
